Location: Betzi
(47.2343°N, 9.5260°E)
Time: 21:52:40
(UTC+00:00)

Meteor 2-5 Rocket - Pass Details

Date: 27 May 2022
Orbit: 832 x 912 km, 81.2° (Epoch: 29 June)

Event Time Altitude Azimuth Distance (km) Brightness Sun altitude
Exits shadow 00:50:24 30° 183° (S) 1,518 4.5 -18.5°
Maximum altitude 00:53:23 81° 99° (E) 885 3.8 -18.3°
Drops below altitude 10° 00:59:04 10° 13° (NNE) 2,500 7.4 -17.9°
Sets 01:01:28 0° 13° (NNE) 3,429 8.4 -17.7°
